Year,Month,Day,Hour,Minute,Value (Times are PST for temperature in C)
2013,08,23,00,00,17.10
2013,08,23,00,01,17.10
2013,08,23,00,02,17.00
2013,08,23,00,03,17.00
2013,08,23,00,04,17.00
2013,08,23,00,05,17.00
2013,08,23,00,06,17.00
2013,08,23,00,07,17.00
2013,08,23,00,08,16.90
2013,08,23,00,09,16.90
2013,08,23,00,10,16.90
2013,08,23,00,11,16.90
2013,08,23,00,12,16.90
2013,08,23,00,16,16.80
2013,08,23,00,17,16.80
2013,08,23,00,18,16.80
2013,08,23,00,19,16.80
2013,08,23,00,20,16.80
2013,08,23,00,21,16.70
2013,08,23,00,22,16.70
2013,08,23,00,23,16.70
2013,08,23,00,24,16.70
2013,08,23,00,25,16.70
2013,08,23,00,26,16.60
2013,08,23,00,27,16.60
2013,08,23,00,28,16.50
2013,08,23,00,29,16.40
2013,08,23,00,30,16.40
2013,08,23,00,31,16.30
2013,08,23,00,32,16.30
2013,08,23,00,33,16.20
2013,08,23,00,34,16.20
2013,08,23,00,35,16.10
2013,08,23,00,36,16.10
2013,08,23,00,37,16.00
2013,08,23,00,38,15.90
2013,08,23,00,39,15.80
2013,08,23,00,40,15.80
2013,08,23,00,41,15.70
2013,08,23,00,42,15.70
2013,08,23,00,43,15.60
2013,08,23,00,44,15.60
2013,08,23,00,45,15.50
2013,08,23,00,46,15.50
2013,08,23,00,47,15.40
2013,08,23,00,48,15.40
2013,08,23,00,49,15.30
2013,08,23,00,50,15.30
2013,08,23,00,51,15.30
2013,08,23,00,52,15.20
2013,08,23,00,53,15.10
2013,08,23,00,54,15.10
2013,08,23,00,55,15.00
2013,08,23,00,56,15.00
2013,08,23,00,57,15.00
2013,08,23,00,58,14.90
2013,08,23,00,59,14.90
2013,08,23,01,00,14.90
2013,08,23,01,01,14.80
2013,08,23,01,02,14.80
2013,08,23,01,03,14.80
2013,08,23,01,04,14.80
2013,08,23,01,05,14.80
2013,08,23,01,06,14.80
2013,08,23,01,07,14.80
2013,08,23,01,08,14.80
2013,08,23,01,09,14.80
2013,08,23,01,10,14.80
2013,08,23,01,11,14.80
2013,08,23,01,12,14.80
2013,08,23,01,13,14.80
2013,08,23,01,14,14.80
2013,08,23,01,15,14.80
2013,08,23,01,16,14.90
2013,08,23,01,17,14.90
2013,08,23,01,18,14.90
2013,08,23,01,19,14.90
2013,08,23,01,20,14.90
2013,08,23,01,21,14.90
2013,08,23,01,22,14.90
2013,08,23,01,23,15.00
2013,08,23,01,24,15.00
2013,08,23,01,25,15.00
2013,08,23,01,26,15.00
2013,08,23,01,27,15.00
2013,08,23,01,28,15.00
2013,08,23,01,29,15.00
2013,08,23,01,30,15.00
2013,08,23,01,31,15.00
2013,08,23,01,32,15.00
2013,08,23,01,33,15.00
2013,08,23,01,34,15.00
2013,08,23,01,35,15.00
2013,08,23,01,36,15.10
2013,08,23,01,37,15.10
2013,08,23,01,38,15.10
2013,08,23,01,39,15.10
2013,08,23,01,40,15.00
2013,08,23,01,41,15.00
2013,08,23,01,42,15.00
2013,08,23,01,43,15.00
2013,08,23,01,44,15.00
2013,08,23,01,45,15.00
2013,08,23,01,46,15.00
2013,08,23,01,47,15.00
2013,08,23,01,48,15.00
2013,08,23,01,49,15.00
2013,08,23,01,50,15.00
2013,08,23,01,51,15.00
2013,08,23,01,52,15.00
2013,08,23,01,53,15.00
2013,08,23,01,54,15.00
2013,08,23,01,55,15.00
2013,08,23,01,56,15.00
2013,08,23,01,57,15.00
2013,08,23,01,58,15.00
2013,08,23,01,59,15.00
2013,08,23,02,00,15.00
2013,08,23,02,01,15.00
2013,08,23,02,02,15.00
2013,08,23,02,03,15.00
2013,08,23,02,04,15.00
2013,08,23,02,05,15.00
2013,08,23,02,06,15.00
2013,08,23,02,07,15.00
2013,08,23,02,08,14.90
2013,08,23,02,09,14.90
2013,08,23,02,10,14.90
2013,08,23,02,11,14.90
2013,08,23,02,12,14.90
2013,08,23,02,13,14.80
2013,08,23,02,14,14.80
2013,08,23,02,15,14.80
2013,08,23,02,16,14.80
2013,08,23,02,17,14.80
2013,08,23,02,18,14.80
2013,08,23,02,19,14.80
2013,08,23,02,20,14.80
2013,08,23,02,21,14.80
2013,08,23,02,22,14.80
2013,08,23,02,23,14.80
2013,08,23,02,24,14.80
2013,08,23,02,25,14.80
2013,08,23,02,26,14.80
2013,08,23,02,27,14.80
2013,08,23,02,28,14.80
2013,08,23,02,29,14.80
2013,08,23,02,30,14.80
2013,08,23,02,31,14.80
2013,08,23,02,32,14.80
2013,08,23,02,33,14.80
2013,08,23,02,34,14.80
2013,08,23,02,35,14.80
2013,08,23,02,36,14.80
2013,08,23,02,37,14.80
2013,08,23,02,38,14.80
2013,08,23,02,39,14.80
2013,08,23,02,40,14.80
2013,08,23,02,41,14.80
2013,08,23,02,42,14.80
2013,08,23,02,43,14.80
2013,08,23,02,44,14.80
2013,08,23,02,45,14.80
2013,08,23,02,46,14.80
2013,08,23,02,47,14.80
2013,08,23,02,48,14.80
2013,08,23,02,49,14.80
2013,08,23,02,50,14.80
2013,08,23,02,51,14.80
2013,08,23,02,52,14.80
2013,08,23,02,53,14.80
2013,08,23,02,54,14.80
2013,08,23,02,55,14.80
2013,08,23,02,56,14.80
2013,08,23,02,57,14.90
2013,08,23,02,58,14.90
2013,08,23,02,59,14.90
2013,08,23,03,00,14.90
2013,08,23,03,01,15.00
2013,08,23,03,02,15.00
2013,08,23,03,03,15.00
2013,08,23,03,04,15.00
2013,08,23,03,05,15.00
2013,08,23,03,06,15.00
2013,08,23,03,07,15.00
2013,08,23,03,08,15.00
2013,08,23,03,09,15.10
2013,08,23,03,10,15.10
2013,08,23,03,11,15.10
2013,08,23,03,12,15.20
2013,08,23,03,13,15.20
2013,08,23,03,14,15.20
2013,08,23,03,15,15.20
2013,08,23,03,16,15.30
2013,08,23,03,17,15.30
2013,08,23,03,18,15.30
2013,08,23,03,19,15.30
2013,08,23,03,20,15.40
2013,08,23,03,21,15.40
2013,08,23,03,22,15.40
2013,08,23,03,23,15.40
2013,08,23,03,24,15.40
2013,08,23,03,25,15.40
2013,08,23,03,26,15.40
2013,08,23,03,27,15.40
2013,08,23,03,28,15.40
2013,08,23,03,29,15.50
2013,08,23,03,30,15.50
2013,08,23,03,31,15.50
2013,08,23,03,32,15.50
2013,08,23,03,33,15.50
2013,08,23,03,34,15.50
2013,08,23,03,35,15.50
2013,08,23,03,36,15.50
2013,08,23,03,37,15.50
2013,08,23,03,38,15.50
2013,08,23,03,39,15.50
2013,08,23,03,40,15.50
2013,08,23,03,41,15.50
2013,08,23,03,42,15.50
2013,08,23,03,43,15.50
2013,08,23,03,44,15.50
2013,08,23,03,45,15.50
2013,08,23,03,46,15.50
2013,08,23,03,47,15.40
2013,08,23,03,48,15.40
2013,08,23,03,49,15.40
2013,08,23,03,50,15.40
2013,08,23,03,51,15.40
2013,08,23,03,52,15.40
2013,08,23,03,53,15.40
2013,08,23,03,54,15.40
2013,08,23,03,55,15.40
2013,08,23,03,56,15.40
2013,08,23,03,57,15.40
2013,08,23,03,58,15.40
2013,08,23,03,59,15.40
2013,08,23,04,00,15.40
2013,08,23,04,01,15.40
2013,08,23,04,02,15.40
2013,08,23,04,03,15.40
2013,08,23,04,04,15.40
2013,08,23,04,05,15.40
2013,08,23,04,06,15.40
2013,08,23,04,07,15.40
2013,08,23,04,08,15.40
2013,08,23,04,09,15.40
2013,08,23,04,10,15.40
2013,08,23,04,11,15.40
2013,08,23,04,12,15.40
2013,08,23,04,13,15.50
2013,08,23,04,14,15.50
2013,08,23,04,15,15.50
2013,08,23,04,16,15.50
2013,08,23,04,17,15.50
2013,08,23,04,18,15.50
2013,08,23,04,19,15.50
2013,08,23,04,20,15.50
2013,08,23,04,21,15.50
2013,08,23,04,22,15.50
2013,08,23,04,23,15.50
2013,08,23,04,24,15.50
2013,08,23,04,25,15.50
2013,08,23,04,26,15.50
2013,08,23,04,27,15.50
2013,08,23,04,28,15.50
2013,08,23,04,29,15.50
2013,08,23,04,30,15.50
2013,08,23,04,31,15.50
2013,08,23,04,32,15.50
2013,08,23,04,33,15.50
2013,08,23,04,34,15.50
2013,08,23,04,35,15.50
2013,08,23,04,36,15.50
2013,08,23,04,37,15.50
2013,08,23,04,38,15.50
2013,08,23,04,39,15.50
2013,08,23,04,40,15.50
2013,08,23,04,41,15.50
2013,08,23,04,42,15.50
2013,08,23,04,43,15.50
2013,08,23,04,44,15.60
2013,08,23,04,45,15.60
2013,08,23,04,46,15.60
2013,08,23,04,47,15.60
2013,08,23,04,48,15.70
2013,08,23,04,49,15.70
2013,08,23,04,50,15.70
2013,08,23,04,51,15.70
2013,08,23,04,52,15.80
2013,08,23,04,53,15.80
2013,08,23,04,54,15.80
2013,08,23,04,55,15.80
2013,08,23,04,56,15.80
2013,08,23,04,57,15.90
2013,08,23,04,58,15.90
2013,08,23,04,59,15.90
2013,08,23,05,00,16.10
2013,08,23,05,01,16.10
2013,08,23,05,02,16.10
2013,08,23,05,03,16.10
2013,08,23,05,04,16.10
2013,08,23,05,05,16.10
2013,08,23,05,06,16.20
2013,08,23,05,07,16.20
2013,08,23,05,08,16.20
2013,08,23,05,09,16.20
2013,08,23,05,10,16.20
2013,08,23,05,11,16.30
2013,08,23,05,12,16.30
2013,08,23,05,13,16.30
2013,08,23,05,14,16.30
2013,08,23,05,15,16.30
2013,08,23,05,16,16.30
2013,08,23,05,17,16.30
2013,08,23,05,18,16.30
2013,08,23,05,19,16.30
2013,08,23,05,20,16.30
2013,08,23,05,21,16.30
2013,08,23,05,22,16.30
2013,08,23,05,23,16.30
2013,08,23,05,24,16.30
2013,08,23,05,25,16.40
2013,08,23,05,26,16.40
2013,08,23,05,27,16.40
2013,08,23,05,28,16.40
2013,08,23,05,29,16.40
2013,08,23,05,30,16.40
2013,08,23,05,31,16.40
2013,08,23,05,32,16.40
2013,08,23,05,33,16.40
2013,08,23,05,34,16.40
2013,08,23,05,35,16.40
2013,08,23,05,36,16.40
2013,08,23,05,37,16.40
2013,08,23,05,38,16.40
2013,08,23,05,39,16.40
2013,08,23,05,40,16.40
2013,08,23,05,41,16.40
2013,08,23,05,42,16.40
2013,08,23,05,43,16.40
2013,08,23,05,44,16.40
2013,08,23,05,45,16.40
2013,08,23,05,46,16.40
2013,08,23,05,47,16.40
2013,08,23,05,48,16.40
2013,08,23,05,49,16.40
2013,08,23,05,50,16.40
2013,08,23,05,51,16.40
2013,08,23,05,52,16.40
2013,08,23,05,53,16.40
2013,08,23,05,54,16.40
2013,08,23,05,55,16.40
2013,08,23,05,56,16.40
2013,08,23,05,57,16.40
2013,08,23,05,58,16.40
2013,08,23,05,59,16.40
2013,08,23,06,00,16.40
2013,08,23,06,01,16.40
2013,08,23,06,02,16.40
2013,08,23,06,03,16.40
2013,08,23,06,04,16.40
2013,08,23,06,05,16.40
2013,08,23,06,06,16.40
2013,08,23,06,07,16.40
2013,08,23,06,08,16.40
2013,08,23,06,09,16.40
2013,08,23,06,10,16.40
2013,08,23,06,11,16.40
2013,08,23,06,12,16.40
2013,08,23,06,13,16.40
2013,08,23,06,14,16.40
2013,08,23,06,15,16.40
2013,08,23,06,16,16.40
2013,08,23,06,17,16.40
2013,08,23,06,18,16.40
2013,08,23,06,19,16.40
2013,08,23,06,20,16.40
2013,08,23,06,21,16.40
2013,08,23,06,22,16.40
2013,08,23,06,23,16.40
2013,08,23,06,24,16.40
2013,08,23,06,25,16.40
2013,08,23,06,26,16.40
2013,08,23,06,27,16.40
2013,08,23,06,28,16.40
2013,08,23,06,29,16.30
2013,08,23,06,30,16.30
2013,08,23,06,31,16.30
2013,08,23,06,32,16.30
2013,08,23,06,33,16.30
2013,08,23,06,34,16.30
2013,08,23,06,35,16.30
2013,08,23,06,36,16.20
2013,08,23,06,37,16.20
2013,08,23,06,38,16.20
2013,08,23,06,39,16.20
2013,08,23,06,40,16.20
2013,08,23,06,41,16.20
2013,08,23,06,42,16.20
2013,08,23,06,43,16.20
2013,08,23,06,44,16.20
2013,08,23,06,45,16.30
2013,08,23,06,46,16.30
2013,08,23,06,47,16.30
2013,08,23,06,48,16.30
2013,08,23,06,49,16.30
2013,08,23,06,50,16.30
2013,08,23,06,51,16.30
2013,08,23,06,52,16.20
2013,08,23,06,53,16.20
2013,08,23,06,54,16.20
2013,08,23,06,55,16.20
2013,08,23,06,56,16.30
2013,08,23,06,57,16.30
2013,08,23,06,58,16.30
2013,08,23,06,59,16.30
2013,08,23,07,00,16.30
2013,08,23,07,01,16.30
2013,08,23,07,02,16.30
2013,08,23,07,03,16.30
2013,08,23,07,04,16.30
2013,08,23,07,05,16.30
2013,08,23,07,06,16.30
2013,08,23,07,07,16.30
2013,08,23,07,08,16.30
2013,08,23,07,09,16.30
2013,08,23,07,10,16.30
2013,08,23,07,11,16.30
2013,08,23,07,12,16.30
2013,08,23,07,13,16.40
2013,08,23,07,14,16.40
2013,08,23,07,15,16.40
2013,08,23,07,16,16.40
2013,08,23,07,17,16.40
2013,08,23,07,18,16.40
2013,08,23,07,19,16.40
2013,08,23,07,20,16.40
2013,08,23,07,21,16.40
2013,08,23,07,22,16.40
2013,08,23,07,23,16.50
2013,08,23,07,24,16.60
2013,08,23,07,25,16.60
2013,08,23,07,26,16.60
2013,08,23,07,27,16.60
2013,08,23,07,28,16.70
2013,08,23,07,29,16.70
2013,08,23,07,30,16.70
2013,08,23,07,31,16.70
2013,08,23,07,32,16.70
2013,08,23,07,33,16.70
2013,08,23,07,34,16.70
2013,08,23,07,35,16.70
2013,08,23,07,36,16.70
2013,08,23,07,37,16.70
2013,08,23,07,38,16.80
2013,08,23,07,39,16.80
2013,08,23,07,40,16.80
2013,08,23,07,41,16.80
2013,08,23,07,42,16.80
2013,08,23,07,43,16.90
2013,08,23,07,44,16.90
2013,08,23,07,45,16.90
2013,08,23,07,46,17.00
2013,08,23,07,47,17.00
2013,08,23,07,48,17.00
2013,08,23,07,49,17.00
2013,08,23,07,50,17.10
2013,08,23,07,51,17.10
2013,08,23,07,52,17.10
2013,08,23,07,53,17.10
2013,08,23,07,54,17.20
2013,08,23,07,55,17.20
2013,08,23,07,56,17.20
2013,08,23,07,57,17.20
2013,08,23,07,58,17.20
2013,08,23,07,59,17.30
2013,08,23,08,00,17.30
2013,08,23,08,01,17.30
2013,08,23,08,02,17.30
2013,08,23,08,03,17.30
2013,08,23,08,04,17.30
2013,08,23,08,05,17.40
2013,08,23,08,06,17.40
2013,08,23,08,07,17.50
2013,08,23,08,08,17.50
2013,08,23,08,09,17.60
2013,08,23,08,10,17.60
2013,08,23,08,11,17.60
2013,08,23,08,12,17.60
2013,08,23,08,13,17.60
2013,08,23,08,14,17.60
2013,08,23,08,15,17.60
2013,08,23,08,16,17.60
2013,08,23,08,17,17.70
2013,08,23,08,18,17.70
2013,08,23,08,19,17.70
2013,08,23,08,20,17.70
2013,08,23,08,21,17.70
2013,08,23,08,22,17.70
2013,08,23,08,23,17.70
2013,08,23,08,24,17.60
2013,08,23,08,25,17.60
2013,08,23,08,26,17.60
2013,08,23,08,27,17.70
2013,08,23,08,28,17.70
2013,08,23,08,29,17.70
2013,08,23,08,30,17.70
2013,08,23,08,31,17.70
2013,08,23,08,32,17.70
2013,08,23,08,33,17.70
2013,08,23,08,34,17.70
2013,08,23,08,35,17.70
2013,08,23,08,36,17.80
2013,08,23,08,37,17.80
2013,08,23,08,38,17.80
2013,08,23,08,39,17.80
2013,08,23,08,40,17.80
2013,08,23,08,41,17.80
2013,08,23,08,42,17.80
2013,08,23,08,43,17.80
2013,08,23,08,44,17.80
2013,08,23,08,45,17.80
2013,08,23,08,46,17.80
2013,08,23,08,47,17.80
2013,08,23,08,48,17.80
2013,08,23,08,49,17.80
2013,08,23,08,50,17.80
2013,08,23,08,51,17.80
2013,08,23,08,52,17.80
2013,08,23,08,53,17.80
2013,08,23,08,54,17.80
2013,08,23,08,55,17.80
2013,08,23,08,56,17.90
2013,08,23,08,57,17.90
2013,08,23,08,58,17.90
2013,08,23,08,59,17.90
2013,08,23,09,00,17.90
2013,08,23,09,01,17.90
2013,08,23,09,02,18.00
2013,08,23,09,03,18.10
2013,08,23,09,04,18.10
2013,08,23,09,05,18.20
2013,08,23,09,06,18.20
2013,08,23,09,07,18.20
2013,08,23,09,08,18.30
2013,08,23,09,09,18.40
2013,08,23,09,10,18.50
2013,08,23,09,11,18.60
2013,08,23,09,12,18.70
2013,08,23,09,13,18.70
2013,08,23,09,14,18.80
2013,08,23,09,15,18.90
2013,08,23,09,16,18.90
2013,08,23,09,17,18.90
2013,08,23,09,18,18.90
2013,08,23,09,19,18.90
2013,08,23,09,20,18.90
2013,08,23,09,21,18.90
2013,08,23,09,22,18.90
2013,08,23,09,23,18.90
2013,08,23,09,24,19.00
2013,08,23,09,25,19.10
2013,08,23,09,26,19.10
2013,08,23,09,27,19.10
2013,08,23,09,28,19.10
2013,08,23,09,29,19.00
2013,08,23,09,30,18.90
2013,08,23,09,31,18.90
2013,08,23,09,32,18.90
2013,08,23,09,33,19.00
2013,08,23,09,34,19.10
2013,08,23,09,35,19.10
2013,08,23,09,36,19.10
2013,08,23,09,37,19.10
2013,08,23,09,38,19.10
2013,08,23,09,39,19.20
2013,08,23,09,40,19.20
2013,08,23,09,41,19.20
2013,08,23,09,42,19.20
2013,08,23,09,43,19.20
2013,08,23,09,44,19.20
2013,08,23,09,45,19.20
2013,08,23,09,46,19.20
2013,08,23,09,47,19.20
2013,08,23,09,48,19.20
2013,08,23,09,49,19.30
2013,08,23,09,50,19.30
2013,08,23,09,51,19.30
2013,08,23,09,52,19.30
2013,08,23,09,53,19.40
2013,08,23,09,54,19.50
2013,08,23,09,55,19.50
2013,08,23,09,56,19.60
2013,08,23,09,57,19.60
2013,08,23,09,58,19.60
2013,08,23,09,59,19.60
2013,08,23,10,00,19.60
2013,08,23,10,01,19.60
2013,08,23,10,02,19.70
2013,08,23,10,03,19.70
2013,08,23,10,04,19.70
2013,08,23,10,05,19.70
2013,08,23,10,06,19.80
2013,08,23,10,07,19.80
2013,08,23,10,08,19.90
2013,08,23,10,09,19.90
2013,08,23,10,10,20.00
2013,08,23,10,11,20.10
2013,08,23,10,12,20.20
2013,08,23,10,13,20.20
2013,08,23,10,14,20.30
2013,08,23,10,15,20.30
2013,08,23,10,16,20.30
2013,08,23,10,17,20.30
2013,08,23,10,18,20.30
2013,08,23,10,19,20.30
2013,08,23,10,20,20.30
2013,08,23,10,21,20.40
2013,08,23,10,22,20.50
2013,08,23,10,23,20.50
2013,08,23,10,24,20.60
2013,08,23,10,25,20.60
2013,08,23,10,26,20.70
2013,08,23,10,27,20.80
2013,08,23,10,28,20.80
2013,08,23,10,29,20.80
2013,08,23,10,30,20.90
2013,08,23,10,31,21.00
2013,08,23,10,32,21.00
2013,08,23,10,33,21.10
2013,08,23,10,34,21.10
2013,08,23,10,35,21.20
2013,08,23,10,36,21.30
2013,08,23,10,37,21.30
2013,08,23,10,38,21.30
2013,08,23,10,39,21.20
2013,08,23,10,40,21.20
2013,08,23,10,41,21.20
2013,08,23,10,42,21.20
2013,08,23,10,43,21.30
2013,08,23,10,44,21.30
2013,08,23,10,45,21.30
2013,08,23,10,46,21.40
2013,08,23,10,47,21.40
2013,08,23,10,48,21.30
2013,08,23,10,49,21.30
2013,08,23,10,50,21.50
2013,08,23,10,51,21.60
2013,08,23,10,52,21.70
2013,08,23,10,53,21.80
2013,08,23,10,54,21.90
2013,08,23,10,55,22.00
2013,08,23,10,56,21.90
2013,08,23,10,57,21.90
2013,08,23,10,58,21.80
2013,08,23,10,59,21.80
2013,08,23,11,00,21.90
2013,08,23,11,01,21.90
2013,08,23,11,02,21.90
2013,08,23,11,03,22.00
2013,08,23,11,04,22.00
2013,08,23,11,05,22.00
2013,08,23,11,06,22.10
2013,08,23,11,07,22.00
2013,08,23,11,08,22.00
2013,08,23,11,09,22.00
2013,08,23,11,10,21.90
2013,08,23,11,11,21.90
2013,08,23,11,12,22.00
2013,08,23,11,13,22.00
2013,08,23,11,14,22.00
2013,08,23,11,15,22.00
2013,08,23,11,16,22.00
2013,08,23,11,17,22.00
2013,08,23,11,18,22.00
2013,08,23,11,19,22.10
2013,08,23,11,20,22.20
2013,08,23,11,21,22.20
2013,08,23,11,22,22.30
2013,08,23,11,23,22.30
2013,08,23,11,24,22.30
2013,08,23,11,25,22.40
2013,08,23,11,26,22.40
2013,08,23,11,27,22.50
2013,08,23,11,28,22.50
2013,08,23,11,29,22.50
2013,08,23,11,30,22.50
2013,08,23,11,31,22.50
2013,08,23,11,32,22.50
2013,08,23,11,33,22.40
2013,08,23,11,34,22.40
2013,08,23,11,35,22.30
2013,08,23,11,36,22.10
2013,08,23,11,37,22.00
2013,08,23,11,38,21.90
2013,08,23,11,39,21.90
2013,08,23,11,40,21.90
2013,08,23,11,41,21.70
2013,08,23,11,42,21.70
2013,08,23,11,43,21.60
2013,08,23,11,44,21.60
2013,08,23,11,45,21.70
2013,08,23,11,46,21.70
2013,08,23,11,47,21.70
2013,08,23,11,48,21.70
2013,08,23,11,49,21.70
2013,08,23,11,50,21.70
2013,08,23,11,51,21.80
2013,08,23,11,52,21.90
2013,08,23,11,53,22.00
2013,08,23,11,54,22.10
2013,08,23,11,55,22.10
2013,08,23,11,56,22.10
2013,08,23,11,57,22.10
2013,08,23,11,58,22.00
2013,08,23,11,59,22.00
2013,08,23,12,00,22.00
2013,08,23,12,01,21.90
2013,08,23,12,02,21.80
2013,08,23,12,03,21.80
2013,08,23,12,04,21.70
2013,08,23,12,05,21.60
2013,08,23,12,06,21.60
2013,08,23,12,07,21.60
2013,08,23,12,08,21.60
2013,08,23,12,09,21.60
2013,08,23,12,10,21.60
2013,08,23,12,11,21.50
2013,08,23,12,12,21.40
2013,08,23,12,13,21.30
2013,08,23,12,14,21.30
2013,08,23,12,15,21.40
2013,08,23,12,16,21.40
2013,08,23,12,17,21.40
2013,08,23,12,18,21.40
2013,08,23,12,19,21.50
2013,08,23,12,20,21.60
2013,08,23,12,21,21.60
2013,08,23,12,22,21.60
2013,08,23,12,23,21.60
2013,08,23,12,24,21.60
2013,08,23,12,25,21.60
2013,08,23,12,26,21.60
2013,08,23,12,27,21.60
2013,08,23,12,28,21.50
2013,08,23,12,29,21.30
2013,08,23,12,30,21.30
2013,08,23,12,31,21.30
2013,08,23,12,32,21.30
2013,08,23,12,33,21.30
2013,08,23,12,34,21.40
2013,08,23,12,35,21.50
2013,08,23,12,36,21.60
2013,08,23,12,37,21.60
2013,08,23,12,38,21.60
2013,08,23,12,39,21.60
2013,08,23,12,40,21.40
2013,08,23,12,41,21.30
2013,08,23,12,42,21.20
2013,08,23,12,43,21.10
2013,08,23,12,44,21.10
2013,08,23,12,45,21.00
2013,08,23,12,46,21.00
2013,08,23,12,47,21.00
2013,08,23,12,48,21.00
2013,08,23,12,49,21.00
2013,08,23,12,50,20.90
2013,08,23,12,51,20.90
2013,08,23,12,52,20.90
2013,08,23,12,53,20.90
2013,08,23,12,54,20.90
2013,08,23,12,55,20.80
2013,08,23,12,56,20.80
2013,08,23,12,57,20.90
2013,08,23,12,58,20.90
2013,08,23,12,59,21.00
2013,08,23,13,00,21.10
2013,08,23,13,01,21.10
2013,08,23,13,02,21.10
2013,08,23,13,03,21.10
2013,08,23,13,04,21.30
2013,08,23,13,05,21.30
2013,08,23,13,06,21.40
2013,08,23,13,07,21.40
2013,08,23,13,08,21.40
2013,08,23,13,09,21.40
2013,08,23,13,10,21.50
2013,08,23,13,11,21.60
2013,08,23,13,12,21.60
2013,08,23,13,13,21.60
2013,08,23,13,14,21.60
2013,08,23,13,15,21.60
2013,08,23,13,16,21.60
2013,08,23,13,17,21.60
2013,08,23,13,18,21.60
2013,08,23,13,19,21.60
2013,08,23,13,20,21.50
2013,08,23,13,21,21.40
2013,08,23,13,22,21.40
2013,08,23,13,23,21.40
2013,08,23,13,24,21.40
2013,08,23,13,25,21.40
2013,08,23,13,26,21.50
2013,08,23,13,27,21.50
2013,08,23,13,28,21.50
2013,08,23,13,29,21.60
2013,08,23,13,30,21.60
2013,08,23,13,31,21.60
2013,08,23,13,32,21.60
2013,08,23,13,33,21.60
2013,08,23,13,34,21.60
2013,08,23,13,35,21.60
2013,08,23,13,36,21.60
2013,08,23,13,37,21.70
2013,08,23,13,38,21.70
2013,08,23,13,39,21.80
2013,08,23,13,40,21.80
2013,08,23,13,41,21.90
2013,08,23,13,42,21.90
2013,08,23,13,43,21.90
2013,08,23,13,44,21.90
2013,08,23,13,45,21.90
2013,08,23,13,46,21.90
2013,08,23,13,47,21.80
2013,08,23,13,48,21.80
2013,08,23,13,49,21.70
2013,08,23,13,50,21.60
2013,08,23,13,51,21.60
2013,08,23,13,52,21.60
2013,08,23,13,53,21.60
2013,08,23,13,54,21.60
2013,08,23,13,55,21.60
2013,08,23,13,56,21.60
2013,08,23,13,57,21.60
2013,08,23,13,58,21.60
2013,08,23,13,59,21.70
2013,08,23,14,00,21.70
2013,08,23,14,01,21.80
2013,08,23,14,02,21.90
2013,08,23,14,03,22.00
2013,08,23,14,04,22.00
2013,08,23,14,05,21.90
2013,08,23,14,06,21.90
2013,08,23,14,07,21.80
2013,08,23,14,08,21.70
2013,08,23,14,09,21.80
2013,08,23,14,10,21.80
2013,08,23,14,11,21.80
2013,08,23,14,12,21.80
2013,08,23,14,13,21.90
2013,08,23,14,14,21.80
2013,08,23,14,15,21.80
2013,08,23,14,16,21.70
2013,08,23,14,17,21.60
2013,08,23,14,18,21.60
2013,08,23,14,19,21.60
2013,08,23,14,20,21.60
2013,08,23,14,21,21.60
2013,08,23,14,22,21.50
2013,08,23,14,23,21.40
2013,08,23,14,24,21.40
2013,08,23,14,25,21.30
2013,08,23,14,26,21.40
2013,08,23,14,27,21.40
2013,08,23,14,28,21.50
2013,08,23,14,29,21.60
2013,08,23,14,30,21.60
2013,08,23,14,31,21.60
2013,08,23,14,32,21.60
2013,08,23,14,33,21.60
2013,08,23,14,34,21.60
2013,08,23,14,35,21.60
2013,08,23,14,36,21.60
2013,08,23,14,37,21.70
2013,08,23,14,38,21.70
2013,08,23,14,39,21.70
2013,08,23,14,40,21.70
2013,08,23,14,41,21.80
2013,08,23,14,42,21.80
2013,08,23,14,43,21.80
2013,08,23,14,44,21.70
2013,08,23,14,45,21.70
2013,08,23,14,46,21.60
2013,08,23,14,47,21.60
2013,08,23,14,48,21.60
2013,08,23,14,49,21.70
2013,08,23,14,50,21.70
2013,08,23,14,51,21.80
2013,08,23,14,52,21.90
2013,08,23,14,53,22.00
2013,08,23,14,54,22.10
2013,08,23,14,55,22.10
2013,08,23,14,56,22.00
2013,08,23,14,57,22.00
2013,08,23,14,58,22.00
2013,08,23,14,59,22.10
2013,08,23,15,00,22.20
2013,08,23,15,01,22.30
2013,08,23,15,02,22.30
2013,08,23,15,03,22.50
2013,08,23,15,04,22.70
2013,08,23,15,05,22.80
2013,08,23,15,06,22.90
2013,08,23,15,07,23.00
2013,08,23,15,08,23.20
2013,08,23,15,09,23.30
2013,08,23,15,10,23.30
2013,08,23,15,11,23.40
2013,08,23,15,12,23.40
2013,08,23,15,13,23.30
2013,08,23,15,14,23.30
2013,08,23,15,15,23.10
2013,08,23,15,16,22.90
2013,08,23,15,17,22.80
2013,08,23,15,18,22.80
2013,08,23,15,19,22.70
2013,08,23,15,20,22.70
2013,08,23,15,21,22.80
2013,08,23,15,22,22.80
2013,08,23,15,23,22.90
2013,08,23,15,24,22.90
2013,08,23,15,25,22.90
2013,08,23,15,26,23.00
2013,08,23,15,27,23.10
2013,08,23,15,28,23.20
2013,08,23,15,29,23.30
2013,08,23,15,30,23.40
2013,08,23,15,31,23.50
2013,08,23,15,32,23.70
2013,08,23,15,33,23.60
2013,08,23,15,34,23.50
2013,08,23,15,35,23.40
2013,08,23,15,36,23.30
2013,08,23,15,37,23.30
2013,08,23,15,38,23.40
2013,08,23,15,39,23.40
2013,08,23,15,40,23.30
2013,08,23,15,41,23.30
2013,08,23,15,42,23.30
2013,08,23,15,43,23.30
2013,08,23,15,44,23.30
2013,08,23,15,45,23.20
2013,08,23,15,46,23.20
2013,08,23,15,47,23.10
2013,08,23,15,48,23.10
2013,08,23,15,49,23.00
2013,08,23,15,50,22.90
2013,08,23,15,51,22.90
2013,08,23,15,52,22.90
2013,08,23,15,53,22.80
2013,08,23,15,54,22.80
2013,08,23,15,55,22.70
2013,08,23,15,56,22.70
2013,08,23,15,57,22.70
2013,08,23,15,58,22.70
2013,08,23,15,59,22.70
2013,08,23,16,00,22.70
2013,08,23,16,01,22.70
2013,08,23,16,02,22.70
2013,08,23,16,03,22.70
2013,08,23,16,04,22.80
2013,08,23,16,05,22.80
2013,08,23,16,06,22.80
2013,08,23,16,07,22.80
2013,08,23,16,08,22.80
2013,08,23,16,09,22.80
2013,08,23,16,10,22.70
2013,08,23,16,11,22.70
2013,08,23,16,12,22.60
2013,08,23,16,13,22.50
2013,08,23,16,14,22.50
2013,08,23,16,15,22.50
2013,08,23,16,16,22.40
2013,08,23,16,17,22.40
2013,08,23,16,18,22.50
2013,08,23,16,19,22.50
2013,08,23,16,20,22.50
2013,08,23,16,21,22.50
2013,08,23,16,22,22.50
2013,08,23,16,23,22.50
2013,08,23,16,24,22.50
2013,08,23,16,25,22.60
2013,08,23,16,26,22.70
2013,08,23,16,27,22.80
2013,08,23,16,28,22.90
2013,08,23,16,29,22.90
2013,08,23,16,30,23.00
2013,08,23,16,31,23.10
2013,08,23,16,32,23.20
2013,08,23,16,33,23.30
2013,08,23,16,34,23.30
2013,08,23,16,35,23.30
2013,08,23,16,36,23.30
2013,08,23,16,37,23.30
2013,08,23,16,38,23.20
2013,08,23,16,39,23.00
2013,08,23,16,40,22.60
2013,08,23,16,41,22.10
2013,08,23,16,42,21.60
2013,08,23,16,43,21.40
2013,08,23,16,44,21.20
2013,08,23,16,45,21.00
2013,08,23,16,46,21.00
2013,08,23,16,47,20.80
2013,08,23,16,48,20.70
2013,08,23,16,49,20.50
2013,08,23,16,50,20.40
2013,08,23,16,51,20.20
2013,08,23,16,52,20.10
2013,08,23,16,53,19.90
2013,08,23,16,54,19.80
2013,08,23,16,55,19.70
2013,08,23,16,56,19.60
2013,08,23,16,57,19.50
2013,08,23,16,58,19.50
2013,08,23,16,59,19.30
2013,08,23,17,00,19.20
2013,08,23,17,01,19.10
2013,08,23,17,02,19.10
2013,08,23,17,03,19.10
2013,08,23,17,04,19.10
2013,08,23,17,05,19.10
2013,08,23,17,06,19.10
2013,08,23,17,07,19.10
2013,08,23,17,08,19.20
2013,08,23,17,09,19.30
2013,08,23,17,10,19.40
2013,08,23,17,11,19.50
2013,08,23,17,12,19.50
2013,08,23,17,13,19.60
2013,08,23,17,14,19.60
2013,08,23,17,15,19.70
2013,08,23,17,16,19.70
2013,08,23,17,17,19.70
2013,08,23,17,18,19.70
2013,08,23,17,19,19.80
2013,08,23,17,20,19.80
2013,08,23,17,21,19.70
2013,08,23,17,22,19.70